Location: *
(48.8489°N, 2.3218°E)
Time: 19:34:03
(UTC+00:00)

Cosmos 2333 Rocket - Pass Details

Date: 23 August 2019
Orbit: 841 x 861 km, 70.8° (Epoch: 22 September)

Event Time Altitude Azimuth Distance (km) Brightness Sun altitude
Rises 23:04:52 0° 334° (NNW) 3,411 6.5 -28.9°
Reaches altitude 10° 23:07:29 10° 342° (NNW) 2,474 5.6 -29.0°
Maximum altitude 23:12:48 40° 51° (NE) 1,237 3.2 -29.2°
Enters shadow 23:13:33 38° 70° (ENE) 1,274 3.1 -29.2°
